DELTA 1 R/B, 3346

Orbit data source: Space-Track

DELTA 1 R/B, 3346 is space debris in SSO originally from a launch on Fri, 16 Aug 1968 UTC launched from the Air Force Western Test Range (AFWTR). Debris objects in space refer to the collection of defunct objects orbiting the Earth. Examples of debris include non-operational satellites, rocket bodies, and fragments generated from explosions, collisions, or faulty payload assembly.

Loading next visibility...
Identifier
3346, 1968-069B
Orbit
SSO
Country
Flag of USUS
Related business
Manufacturer
Aerojet
Mission
Spacecraft
Bus & Motor
ABLESTAR, Unknown motor
Mass
~785 kg wet, ~785 kg dry
Launch date (UTC)
1968-08-16 (57 years ago)
Launch vehicle
Unknown
Launch site
Air Force Western Test Range (AFWTR)
Object type
Payload
Rocket body
Debris
Shape & HBR
Cyl, 2.6 m
Radar Cross Section
6.487 m², Large (>1 m²)

Expand to show TLE details & history
Last TLE update: 1 day ago

TLE from 1 day ago
0 DELTA 1 R/B
1 03346U 68069B   25259.85605896 -.00000021  00000-0  14198-3 0  9995
2 03346 101.4934 227.5583 0023853 170.4507 243.4966 12.54338808613362
Epoch: 2025-09-16T20:32Z
TLE epoch observation values (Epoch: 2025-09-16T20:32:43.494Z)
Latitude
52.26101°
Longitude
-91.81772°
Altitude
1,463.038 km
Speed
7.132 km/s
True Right ascension
14h 09m 36s
True Declination
52° 06' 34"
Sunlit
Object was in daylight at epoch
Visualization orbit readout
Latitude
Unknown
Longitude
Unknown
Altitude
Unknown
Speed
Unknown
Apparent Right ascension
Unknown
Apparent Declination
Unknown
Sunlit
N/A
Visualization observer readout
Local Sidereal Time
18:06:37
Azimuth
Unknown
Elevation
Unknown
Doppler factor
Unknown
Orbital elements
Apogee altitude
1,462.583 km
Perigee altitude
1,425.267 km
Semi-major axis
7,822.062 km
Eccentricity
0.00239
Inclination
101.4934°
RAAN
227.5583°
Arg. of periapsis
170.4507°
True anomaly
243.25232°
Mean anomaly
243.4966°
Eccentric anomaly
243.37443°
Mean motion
3.13734 °/min
Orbital period
114.75 mins
BSTAR
0.00014198
Loading maneuver chart data...
Computing Atmospheric mass density...
Loading historical data...
Loading historical data...
Loading historical data...
Loading historical data...
Loading historical data...
Loading historical data...
Loading historical data...

Documentation

Showing up to 5 results
|